Regional Weather Roundup
Issued by NWS Bismarck, ND

Home | Current Version | Previous Version | Text Only | Print | Product List | Glossary On
Versions: 1 2 3 4 5 6 7 8 9 10 11 12 13 14 15 16 17 18 19 20 21 22 23 24 25 26 27 28 29 30 31 32 33 34 35 36 37 38 39 40 41 42 43 44 45 46 47 48 49 50
000
ASUS43 KBIS 070410
RWRBIS

NWR BROADCAST TEXT
NATIONAL WEATHER SERVICE BISMARCK ND
1000 PM CST SAT FEB 06 2016

NOTE: "FAIR" INDICATES FEW OR NO CLOUDS BELOW 12,000 FEET WITH NO
SIGNIFICANT WEATHER AND/OR OBSTRUCTIONS TO VISIBILITY.


CITY           SKY/WX    TMP DP  RH WIND       PRES   REMARKS
WILLISTON      CLEAR     37  23  56 W25G35    29.80S
MINOT          LGT RAIN  40  26  57 W30G43    29.62R
MINOT AFB      CLOUDY    38  30  74 W30G39    29.60R
BISMARCK       CLOUDY    45  30  55 W17G26    29.74R
DICKINSON      CLEAR     35  22  58 W28G37    29.81R
GARRISON         N/A     38  27  64 NW28G43   29.69R
HETTINGER ARPT CLEAR     36  22  56 W29G36    29.89R
JAMESTOWN      LGT RAIN  38  31  76 W22       29.60S
BEACH          MOCLDY    34  25  69 W20G28    29.95R
CARRINGTON     CLOUDY    37  37 100 W28G39    29.59R
HAZEN          FAIR      39  23  52 NW24G39   29.75R
LINTON         MOCLDY    41  28  60 W18G25    29.76S
MANDAN         MOCLDY    39  28  65 W28G35    29.74R
OAKES          FAIR      37  32  81 W16       29.65F
RUGBY          LGT SNOW  32  32 100 W30G36    29.53R WCI  18
STANLEY        FAIR      34  28  80 NW25G38   29.71R
TIOGA          FAIR      32  27  80 W24G33    29.78S WCI  19
WATFORD CITY   FAIR      36  27  69 W16G28    29.81S
$$

CITY           SKY/WX    TMP DP  RH WIND       PRES   REMARKS
GRAND FORKS    PTCLDY    38  31  76 SW12      29.49F
GRAND FORKS AF PTCLDY    38  30  72 SW15      29.48F
DEVILS LAKE    CLOUDY    36  33  89 W28G33    29.50F
FARGO          CLEAR     38  33  82 SW17      29.58F
CAVALIER       FAIR      37  32  81 W13       29.42F
GRAFTON        FAIR      36  32  87 W14       29.48F
GWINNER          N/A     36  34  93 SW18      29.64F
LANGDON        MOCLDY    36  32  87 W23       29.43F
ROLLA          MIX PCPN  36  32  87 NW26G33   29.46S
WALHALLA       FAIR      37  34  87 W10G17    29.42S
$$

CITY           SKY/WX    TMP DP  RH WIND       PRES   REMARKS
ABERDEEN       CLEAR     42  25  50 W15       29.73S
MOBRIDGE       CLEAR     42  26  53 NW21G28   29.77R
BUFFALO          N/A     38  22  52 W26       29.89R
RAPID CITY     MOCLDY    40  19  43 NW25G35   30.00R
GLASGOW        CLOUDY    33  30  88 W21G31    29.96F
SIDNEY         CLEAR     37  25  60 W28G37    29.85S
WOLF POINT     PTCLDY    37  29  72 W22G33    29.92S
GLENDIVE       PTCLDY    36  27  69 W25G36    29.94R
MILES CITY     CLOUDY    36  27  69 W15G25    30.04R
BAKER          CLOUDY    37  22  54 W21G31    29.96R
$$

CITY           SKY/WX    TMP DP  RH WIND       PRES   REMARKS
BILLINGS       PTCLDY    39  13  34 NW39G48   30.09R
GREAT FALLS    CLEAR     27  16  63 W13       30.18R WCI  16
REGINA         MOCLDY    36  23  60 W29G40    29.68R
$$




USA.gov is the U.S. government's official web portal to all federal, state and local government web resources and services.